GFSSW_925_temp_333.txt.gz
Temp
18 18 19 20 19 20 21 21 21 21 20 20 20 20 20 20 20 19 20 25 26 26 26 26 26 25 26 28 27 27 30 31 31 30 31 28 29 26 26 27 24 25 27 25 20
17 18 19 19 19 20 20 21 21 21 21 20 20 20 20 20 19 17 26 25 25 25 24 26 27 27 28 28 28 30 30 31 31 31 30 29 29 27 27 26 24 23 22 21 20
18 18 18 19 19 20 21 20 20 20 20 20 20 20 19 19 20 26 25 25 25 25 25 26 26 28 28 28 28 28 31 31 30 29 29 29 28 27 27 27 26 23 22 21 20
18 18 18 18 19 21 21 20 20 20 20 20 20 19 19 18 27 25 26 26 25 25 25 25 26 28 28 28 28 29 29 28 27 28 28 28 28 25 26 23 24 23 21 20 20
18 17 18 18 20 21 20 20 19 19 20 19 19 19 18 21 24 25 26 26 24 24 26 26 27 27 29 28 28 28 29 26 26 26 27 27 26 24 22 21 22 21 19 18 18
18 18 18 19 20 20 20 20 19 19 19 19 19 18 18 23 24 24 24 24 24 24 24 26 27 27 28 28 28 26 26 26 26 26 25 26 24 25 20 21 21 21 18 18 18
18 18 18 19 19 20 20 19 19 19 19 19 18 17 18 24 24 24 24 24 25 25 25 24 26 28 28 27 25 25 26 26 25 26 24 26 25 25 21 21 20 20 18 17 16
18 18 18 19 19 20 20 19 19 19 19 18 17 16 22 24 25 25 24 24 24 25 25 26 25 27 28 27 26 26 26 28 26 26 25 26 29 23 21 21 20 19 18 17 16
18 18 18 19 19 20 19 20 19 18 18 17 16 17 24 24 24 25 25 26 24 24 25 25 26 27 27 27 27 26 28 26 26 26 26 26 30 23 21 21 20 20 19 18 16
18 18 18 19 20 20 20 19 19 17 16 15 15 19 24 26 26 25 25 25 26 25 26 26 26 27 26 27 27 28 27 26 27 26 26 26 27 22 21 21 21 19 18 18 17
18 18 19 19 20 20 20 18 20 20 16 24 24 24 25 25 26 26 25 26 27 27 27 25 27 27 28 28 27 28 27 27 28 26 26 26 27 23 21 21 21 20 19 18 17
18 18 19 20 21 21 20 22 21 20 21 21 21 21 22 24 25 26 25 28 27 27 26 26 27 27 26 26 27 27 27 27 26 26 26 27 26 25 22 22 22 21 20 18 17
19 19 19 20 21 20 19 20 19 19 21 24 23 23 24 24 25 26 28 27 27 26 27 27 28 26 26 25 26 26 27 27 28 25 26 25 26 26 23 23 22 22 21 19 18
19 19 19 20 20 19 19 19 19 19 24 27 27 26 25 25 27 27 27 28 27 27 26 27 28 27 26 27 27 26 27 28 27 26 27 26 27 28 28 22 21 21 20 20 18
19 19 19 20 19 19 20 20 20 19 24 27 28 26 25 27 27 28 26 28 28 27 26 28 27 26 27 28 27 28 28 27 27 27 27 24 26 28 23 24 24 22 21 19 18
20 20 20 20 20 21 21 20 20 25 24 26 27 27 27 27 27 27 28 28 27 27 26 28 27 27 29 28 27 29 27 24 24 26 24 27 26 29 26 27 28 25 21 18 17
20 20 20 20 21 21 21 21 25 23 25 25 26 26 26 25 26 26 26 26 26 26 26 27 28 28 27 28 27 27 27 27 26 25 26 26 25 28 26 25 24 25 20 18 17
21 20 20 20 21 22 21 24 22 22 23 25 25 25 24 24 25 25 25 25 25 24 25 25 26 26 26 27 28 26 27 27 25 26 27 24 25 28 19 19 20 22 20 18 17
22 21 20 21 21 20 23 22 21 21 22 22 24 23 23 23 23 25 24 23 23 23 23 24 25 26 26 27 26 26 26 26 26 25 25 28 25 20 20 18 18 19 18 17 16
22 20 20 21 21 21 23 20 22 21 21 22 22 22 22 22 22 23 22 21 21 22 21 23 22 25 25 26 25 25 24 25 25 24 25 27 25 26 23 20 16 16 16 16 16
21 23 22 23 22 22 21 21 22 22 21 22 21 21 21 21 21 22 21 20 21 21 22 21 21 24 24 25 24 25 24 22 22 22 24 24 25 21 20 19 17 16 16 16 16
19 23 22 23 22 18 20 20 19 20 20 20 20 20 20 20 20 21 20 20 20 20 19 19 19 20 23 24 22 23 23 22 22 22 22 21 23 20 18 18 17 16 15 16 16
21 20 22 21 21 20 19 19 19 19 18 18 19 18 19 19 19 20 19 21 20 20 19 19 18 17 21 22 21 22 20 20 20 20 21 21 23 17 15 16 16 16 16 15 15
20 21 20 17 15 18 18 17 18 18 17 17 17 18 17 18 18 18 18 19 19 19 18 17 17 15 15 15 16 19 18 18 18 19 21 21 22 20 16 16 16 15 15 14 13
17 16 15 17 17 16 16 16 16 16 17 17 17 17 15 16 17 17 18 17 18 16 17 17 17 18 18 16 13 13 16 17 18 18 19 20 19 19 17 18 17 16 15 14 13
19 18 15 14 14 16 14 15 15 15 16 16 16 16 16 16 16 16 16 16 16 15 15 14 16 15 17 19 15 13 15 14 14 15 17 16 18 15 16 18 16 15 15 14 12
12 13 17 12 14 16 15 15 15 14 16 17 16 15 16 17 16 15 14 14 14 14 14 13 14 13 16 17 18 17 14 14 12 12 11 15 14 14 15 16 16 15 14 12 12

GFSSW_925_temp_336.txt.gz
Temp
18 18 20 20 20 19 20 21 21 21 21 21 20 20 20 20 20 17 25 27 26 26 26 27 29 30 31 33 33 34 34 35 36 36 36 34 33 33 32 30 30 30 32 29 24
18 18 18 19 19 18 20 21 21 21 21 20 20 20 20 19 17 24 26 25 25 25 26 29 31 31 32 33 33 33 34 35 38 37 37 35 35 32 31 31 29 29 28 25 25
18 18 18 18 17 19 20 20 20 21 21 20 20 20 19 19 23 30 25 25 25 25 27 29 31 32 32 34 33 33 34 36 37 36 35 36 34 33 32 32 31 27 25 27 27
18 18 18 18 19 20 20 20 20 21 20 20 20 20 19 17 29 28 26 26 25 24 28 30 31 31 32 32 34 32 34 35 36 34 34 35 35 32 33 31 31 28 26 27 27
17 18 18 19 20 19 20 20 20 20 20 20 20 19 18 25 29 25 26 26 24 26 29 31 31 32 32 33 33 32 34 34 34 33 33 33 33 32 29 29 28 26 25 27 27
17 18 18 19 18 20 20 20 20 20 20 19 19 19 20 27 26 24 24 25 26 27 30 31 32 32 32 32 32 33 34 33 32 33 32 32 30 30 27 27 26 24 23 24 25
17 17 18 19 19 20 21 20 20 20 19 19 19 17 22 28 26 25 25 26 27 28 30 30 30 31 32 31 32 32 31 31 31 31 31 31 29 29 27 27 27 25 21 20 21
17 18 18 19 19 21 21 20 19 19 18 19 18 18 26 26 25 25 26 27 26 27 28 28 29 32 32 32 31 31 32 32 33 31 30 30 33 31 27 27 27 25 21 19 18
18 18 18 19 20 21 20 20 19 18 18 18 18 21 29 26 27 27 27 29 28 27 28 27 30 31 31 31 32 32 32 32 32 32 31 30 33 28 27 27 27 25 22 20 20
18 18 18 19 20 21 20 19 18 17 16 16 19 22 28 30 29 27 27 28 29 29 29 30 31 31 32 32 31 32 31 33 32 32 31 31 33 29 28 28 27 26 25 21 20
19 19 19 19 20 20 18 17 23 24 21 27 28 26 28 29 28 29 28 29 30 30 30 30 30 30 31 32 33 32 32 32 33 34 31 32 32 31 28 28 28 27 26 24 23
19 19 19 20 20 20 19 27 25 23 26 28 27 26 26 26 29 30 29 30 30 30 30 29 30 32 32 31 30 31 31 31 32 33 31 32 32 33 29 28 29 28 26 25 23
19 19 19 20 20 20 22 23 21 21 26 29 28 28 28 27 30 30 30 31 30 30 30 30 32 31 30 30 30 30 30 31 31 32 31 31 31 32 32 29 29 28 27 26 24
19 19 19 20 19 21 24 21 21 20 29 29 30 29 29 29 30 30 30 31 30 30 31 30 32 30 30 30 30 30 31 31 31 31 30 31 30 32 33 30 29 29 28 27 25
19 19 19 20 20 26 22 21 21 22 28 30 30 29 30 30 30 30 30 31 30 30 30 31 30 30 30 30 31 30 32 31 31 31 30 31 30 32 34 33 31 30 30 28 27
20 20 20 20 19 21 20 20 22 27 25 28 30 29 30 30 30 31 31 31 31 30 30 31 32 31 31 32 31 31 30 30 30 30 29 30 31 31 33 32 32 33 32 30 27
20 21 21 21 25 20 20 25 28 27 28 27 27 29 28 28 28 29 29 28 28 27 29 31 31 32 31 30 32 31 30 29 29 29 29 31 31 31 32 33 32 33 31 31 27
22 22 21 21 20 19 23 29 25 25 26 27 27 28 26 27 28 28 28 28 27 27 28 28 28 29 29 29 29 30 30 29 27 29 31 33 31 31 31 27 27 27 28 28 25
21 20 24 22 20 20 29 26 24 24 25 25 27 26 27 26 26 27 27 25 25 25 24 25 27 30 29 29 29 29 28 30 28 29 29 31 32 28 27 26 25 26 27 25 23
22 25 25 23 22 25 28 22 24 24 24 25 24 25 24 25 24 25 26 24 24 24 25 25 23 27 28 29 29 28 30 27 28 26 26 29 30 31 27 26 23 23 23 23 22
23 28 25 23 24 28 26 24 24 24 24 23 23 23 24 23 23 24 24 23 23 23 24 24 23 24 26 27 27 27 25 27 27 27 26 27 29 27 25 25 23 22 22 22 21
26 27 24 23 27 26 25 23 19 23 23 23 23 23 22 22 22 23 23 23 23 22 22 23 21 21 23 25 27 27 26 27 26 25 27 27 27 23 22 23 23 22 21 21 20
27 26 25 26 26 24 23 22 22 22 21 21 21 21 21 21 21 22 22 23 22 21 20 21 22 21 22 24 22 20 16 19 22 23 23 24 25 22 21 22 21 20 20 20 20
26 26 25 24 23 23 23 21 21 21 20 21 21 21 21 21 22 21 21 21 21 21 18 19 20 20 19 20 21 19 18 18 18 19 22 24 25 21 21 22 21 20 20 20 19
25 22 20 23 22 21 22 21 21 20 21 20 20 20 20 19 20 21 21 20 21 19 20 19 19 20 21 21 21 21 20 18 15 14 16 20 18 18 20 20 22 20 20 19 18
25 23 22 20 20 21 19 20 20 20 19 20 19 20 20 19 19 19 19 19 19 19 19 18 18 19 19 21 22 20 20 19 16 15 15 17 17 19 20 21 22 20 19 17 16
19 19 24 15 20 21 20 19 19 19 19 20 19 19 20 19 18 19 19 18 18 18 17 17 17 17 18 19 18 19 13 16 16 15 15 15 14 16 18 19 19 19 18 17 15

GFSSW_925_temp_339.txt.gz
Temp
18 18 18 18 19 20 21 21 21 21 20 21 20 21 20 20 21 20 26 28 28 27 27 31 31 32 33 35 36 37 35 36 38 39 39 38 38 37 37 34 34 34 35 32 29
18 18 18 18 19 20 21 21 21 21 20 20 20 20 20 20 19 27 29 27 26 26 27 32 33 34 34 35 36 35 35 36 40 41 40 38 38 36 34 34 34 34 32 30 29
18 18 18 19 19 20 20 21 20 21 20 20 20 20 20 19 26 31 26 27 26 26 28 31 34 35 34 36 36 35 35 38 39 40 39 38 38 37 35 34 34 32 30 30 30
18 18 18 18 19 20 20 20 21 20 20 20 20 20 20 19 31 29 26 26 26 25 29 32 34 33 34 34 36 35 36 37 39 39 37 37 38 36 35 36 35 33 31 31 31
18 18 18 18 19 19 20 20 21 20 20 20 20 19 18 28 31 28 27 27 25 26 30 33 33 34 33 34 35 35 36 37 37 38 37 37 37 36 36 35 34 32 31 31 32
18 18 17 18 19 19 20 21 20 20 20 20 19 19 21 28 30 29 28 26 28 29 32 34 34 35 35 35 34 36 36 36 37 37 37 35 36 36 33 33 31 30 31 31 32
18 18 18 18 19 19 20 20 20 20 20 19 19 18 25 30 29 29 29 30 30 31 33 33 34 34 34 34 35 35 34 36 36 36 36 35 35 33 33 32 30 30 31 31 31
18 18 18 18 19 20 20 20 20 20 19 19 19 19 28 30 30 29 30 30 30 30 31 32 32 34 34 36 34 33 33 33 36 35 35 34 34 35 32 32 30 29 28 28 28
18 19 18 18 19 20 20 20 19 19 19 19 18 23 31 28 30 30 30 31 31 30 30 30 31 32 34 33 33 34 33 34 35 36 35 33 34 37 33 32 31 29 26 25 25
19 19 18 19 19 20 20 19 19 19 18 18 21 26 30 32 31 30 31 31 32 32 31 32 32 31 31 32 32 34 34 34 35 35 35 35 34 33 32 32 32 31 28 26 24
19 19 19 19 20 20 20 18 24 24 23 30 31 31 31 32 31 31 31 32 33 32 31 32 32 32 33 34 34 35 34 35 36 37 35 34 35 34 32 32 32 32 30 27 26
19 19 19 19 20 20 20 29 28 27 29 32 31 31 30 30 31 32 31 31 32 31 33 32 31 34 35 35 34 33 33 33 35 36 35 35 34 36 32 33 33 32 31 29 27
20 19 19 20 20 21 25 27 26 26 29 32 32 32 32 31 32 33 32 32 32 32 33 32 34 34 34 32 32 32 32 33 33 35 35 34 33 34 36 34 34 34 33 31 29
20 20 19 20 19 27 28 26 27 26 29 32 32 32 33 33 32 33 33 33 33 32 33 33 34 34 32 32 33 32 34 33 33 33 32 34 31 34 35 35 33 33 32 31 29
20 20 20 20 20 28 27 26 26 26 28 32 32 33 33 33 33 32 33 33 31 32 32 32 33 32 32 32 33 32 34 33 33 32 32 33 33 34 36 35 35 34 33 32 31
20 20 21 22 22 27 26 26 26 28 27 31 32 31 32 32 32 33 33 33 33 32 32 33 34 34 33 33 34 34 32 33 33 32 31 32 32 33 35 35 36 36 34 33 33
21 22 22 21 28 26 26 28 29 29 31 29 29 31 31 30 31 31 31 31 30 28 30 31 32 34 34 32 33 33 32 30 30 31 30 33 33 33 35 36 36 35 36 35 35
22 22 23 23 26 26 26 29 28 28 28 29 29 30 29 29 29 30 30 29 27 28 29 29 29 30 31 30 30 31 31 29 28 30 32 34 32 34 36 37 34 34 33 33 35
23 23 27 27 26 25 28 29 27 27 27 27 29 28 30 30 29 29 29 28 28 27 25 26 28 31 29 30 30 29 29 31 27 27 29 32 33 35 33 31 31 32 32 32 32
23 29 29 28 28 28 30 25 26 26 27 27 27 27 26 27 27 27 28 27 26 26 27 26 24 27 28 30 30 29 31 29 29 25 25 29 31 30 28 29 28 28 29 29 28
22 31 29 28 29 31 29 27 27 27 26 25 25 25 26 25 26 26 27 26 25 25 25 25 24 25 27 27 28 28 28 27 26 25 25 24 26 26 23 25 26 27 27 27 26
29 30 28 28 30 30 28 27 20 26 26 25 25 25 24 25 25 25 25 25 25 24 23 24 23 23 24 27 28 27 26 23 21 20 20 21 24 24 24 26 26 26 25 25 25
30 30 28 28 29 28 26 26 25 25 24 24 24 24 24 24 23 24 24 25 24 23 22 22 22 21 23 26 27 25 25 23 20 21 22 23 24 17 17 21 23 25 24 24 23
30 29 29 29 27 27 26 25 25 24 24 24 24 24 23 24 25 23 24 24 24 24 18 20 21 21 21 22 24 23 24 24 21 18 17 19 17 16 16 16 18 23 23 23 22
29 26 25 27 26 25 25 25 25 24 24 24 24 23 23 22 23 23 23 23 24 17 22 22 20 21 22 23 23 23 22 24 23 19 15 18 18 18 14 16 17 17 21 22 20
27 27 27 24 24 25 20 24 24 23 23 23 22 23 23 22 22 21 21 22 21 22 22 21 19 20 20 22 22 22 17 20 20 20 20 18 18 18 19 17 17 17 21 20 19
25 24 27 20 24 25 24 23 23 23 23 23 22 22 23 22 22 22 22 21 21 20 20 19 19 19 19 21 22 16 11 14 16 18 17 15 16 17 17 16 19 19 19 17 15

GFSSW_925_temp_342.txt.gz
Temp
18 18 18 18 18 18 20 20 21 21 21 21 21 21 21 20 21 19 23 27 28 28 28 29 31 31 32 33 35 37 34 34 36 37 39 39 39 39 37 33 36 36 33 31 31
18 18 18 18 18 18 20 21 21 21 21 21 21 21 20 19 17 23 26 28 28 28 28 30 33 34 33 33 34 35 34 35 37 39 39 38 39 38 36 36 35 33 32 32 30
18 18 18 18 18 19 21 21 20 21 21 21 21 20 20 18 23 30 27 27 28 28 28 31 33 35 34 34 34 35 34 36 37 39 40 38 37 32 36 35 35 32 31 31 31
18 18 18 18 18 19 20 21 21 21 21 21 20 20 20 17 29 29 28 28 27 27 28 30 33 33 34 34 35 34 36 36 36 38 39 39 36 26 23 34 29 33 32 31 31
18 18 18 18 18 19 20 21 20 20 21 20 20 19 18 25 29 28 28 28 27 26 28 31 33 33 33 35 36 35 36 37 37 38 38 39 38 31 29 28 25 27 31 31 32
18 18 18 18 18 19 19 21 21 20 20 20 19 18 19 26 32 31 30 27 29 28 30 32 34 35 34 35 35 36 35 36 37 37 38 37 37 37 25 22 26 31 31 32 32
18 18 18 18 18 19 20 21 21 20 20 20 19 17 23 28 31 31 30 31 32 31 32 34 35 35 35 34 36 36 34 35 36 36 37 38 36 36 30 27 32 32 32 32 32
18 18 18 18 18 19 20 21 20 20 20 19 19 18 26 31 31 31 31 32 32 32 32 33 34 34 34 35 35 34 34 32 34 36 37 36 34 37 35 33 32 32 32 32 32
18 19 19 18 18 19 20 20 20 19 19 19 18 21 29 30 31 32 32 32 32 32 32 32 32 32 33 33 33 34 32 33 34 36 36 35 34 35 36 33 31 31 32 32 31
19 19 19 19 19 20 20 20 18 19 19 18 21 25 29 32 33 32 32 32 33 33 32 32 32 31 31 30 30 33 34 35 35 36 37 35 34 35 36 33 31 30 30 30 30
19 19 19 19 20 20 21 19 23 23 23 29 31 31 33 33 32 33 33 33 33 33 31 33 31 31 32 32 32 32 32 33 35 37 35 34 34 35 34 33 32 30 29 28 28
20 20 20 20 20 21 20 25 29 30 28 32 33 33 32 32 32 34 33 32 32 31 33 33 32 34 35 35 34 34 33 33 34 35 35 36 35 36 33 33 33 32 30 28 27
20 20 20 20 20 22 24 29 29 29 29 32 34 33 33 33 33 34 34 33 32 32 33 32 34 35 35 34 34 33 33 33 33 34 35 35 34 35 35 34 34 25 23 22 28
20 20 20 21 20 26 29 29 29 28 28 32 33 33 34 34 33 34 35 33 33 32 33 33 35 34 34 34 33 32 34 34 33 33 32 35 32 34 35 34 33 27 26 22 26
20 20 21 21 20 28 29 29 28 29 25 32 33 34 35 34 34 33 34 34 32 32 33 32 33 34 33 33 34 33 34 34 33 33 33 33 32 33 36 35 35 34 33 33 31
22 22 22 22 20 27 29 29 28 27 24 31 33 32 33 33 33 33 34 34 33 31 32 32 34 34 33 34 34 34 33 33 33 32 31 32 32 33 34 35 36 37 35 34 33
23 23 23 22 28 29 29 30 28 27 32 30 30 32 32 31 31 32 31 31 29 28 28 30 32 32 30 30 31 31 31 29 29 30 30 33 32 33 35 36 36 36 37 35 34
23 23 23 25 27 29 28 28 28 30 29 30 30 31 31 31 30 30 30 30 28 28 27 27 27 30 30 29 26 26 27 26 24 25 25 30 29 32 34 35 33 35 36 36 34
23 23 23 29 29 29 29 29 27 28 28 28 30 29 30 30 30 29 29 29 28 27 24 25 25 28 29 29 29 27 26 28 27 27 26 28 29 32 26 24 30 30 31 33 30
21 27 30 30 30 30 30 27 28 28 28 28 27 28 27 28 27 28 28 27 26 27 26 25 23 26 28 28 29 29 30 28 25 22 22 27 27 19 17 19 18 21 29 26 25
21 29 30 30 31 31 29 29 29 28 27 27 26 26 27 26 27 27 28 27 26 26 26 25 24 24 26 26 26 27 27 27 25 22 19 20 21 17 15 16 15 16 20 24 23
27 29 30 30 30 31 28 28 21 27 27 27 27 26 25 25 25 26 26 26 26 25 24 24 22 22 23 26 27 27 26 26 22 22 22 20 20 17 16 16 15 16 17 21 23
28 31 30 30 29 29 28 27 27 26 26 26 25 25 26 25 24 25 25 27 26 25 22 22 21 20 22 25 26 24 25 25 24 24 22 21 21 19 18 15 15 14 16 15 21
29 30 30 30 29 27 27 27 27 26 26 26 25 26 25 24 25 24 25 26 25 24 20 21 21 21 20 21 23 23 20 22 22 20 20 22 21 21 20 18 19 16 15 15 16
30 28 27 27 28 27 27 27 27 26 26 25 25 25 24 23 24 24 24 24 24 21 23 23 20 21 22 22 22 20 18 17 19 16 17 18 17 17 18 18 19 18 16 14 13
27 27 29 27 26 27 21 26 25 26 25 25 24 24 24 23 23 22 22 22 22 23 22 22 20 20 20 23 21 16 18 17 17 18 17 19 16 16 18 18 17 15 14 14 12
25 27 27 23 27 26 26 26 25 25 25 25 24 24 24 23 23 23 23 23 22 21 21 21 20 19 19 21 22 16 15 16 16 16 16 15 14 16 16 15 15 14 14 12 12

GFSSW_925_temp_345.txt.gz
Temp
18 18 18 18 18 18 19 20 20 20 21 21 21 21 21 20 20 19 17 25 26 27 27 27 28 29 29 27 28 29 27 27 28 31 32 33 30 26 27 28 28 32 29 29 30
18 18 18 17 17 18 18 20 20 20 20 21 21 20 20 19 18 17 28 26 26 27 28 28 26 28 25 28 27 27 25 28 31 32 32 33 32 26 27 28 30 30 30 30 30
18 18 18 18 18 17 18 19 20 20 21 21 21 20 20 18 17 25 29 28 26 26 28 28 28 27 27 27 27 28 28 29 31 33 33 33 31 28 26 22 21 27 28 29 30
18 18 18 18 18 18 18 20 21 21 21 20 20 20 19 17 24 29 28 27 27 27 27 28 27 26 28 27 28 28 30 31 32 33 32 33 28 26 26 23 23 25 28 29 29
18 18 18 18 18 18 19 20 21 21 20 20 20 19 20 19 22 29 29 28 27 27 27 26 26 26 26 28 29 29 29 31 31 31 31 32 31 27 25 23 20 21 28 29 28
18 18 18 19 19 19 19 20 21 21 20 20 19 18 16 21 29 30 29 27 27 27 28 27 27 27 28 28 28 30 30 31 31 30 31 32 29 25 23 23 23 24 23 28 28
18 18 19 19 19 19 19 20 21 21 20 20 19 17 19 21 30 30 30 30 30 29 28 30 30 29 30 28 29 30 29 29 31 31 31 32 31 28 22 23 23 25 23 28 28
19 19 19 19 20 19 19 20 20 20 20 19 18 16 19 29 30 30 31 31 32 32 31 32 32 29 30 29 29 28 29 27 29 31 32 32 30 23 23 24 24 26 26 28 28
19 19 19 19 19 19 20 20 20 20 19 19 17 17 22 29 30 31 32 31 32 32 32 32 31 29 28 27 25 27 26 28 29 31 31 31 29 29 24 24 22 23 23 27 27
20 19 19 20 20 19 21 21 20 18 19 16 18 20 24 30 32 32 32 32 31 32 30 30 27 26 25 25 25 26 27 27 28 31 31 30 29 32 25 25 23 22 24 28 26
20 20 20 20 20 20 21 21 17 18 20 23 26 27 31 33 32 32 32 32 31 31 27 28 25 24 25 26 27 29 29 28 30 33 31 30 31 30 32 29 29 29 27 27 23
20 20 20 20 20 20 19 20 27 29 25 28 28 28 33 32 31 32 33 31 29 27 28 27 26 29 30 30 29 28 28 29 30 32 32 29 30 31 30 30 29 29 27 23 23
20 20 20 21 21 21 22 25 28 29 25 29 32 32 32 32 31 31 31 30 29 28 28 27 29 32 32 31 31 29 29 29 29 31 31 30 29 30 32 30 30 28 26 24 22
20 20 21 21 19 23 25 28 29 28 23 30 32 33 32 31 32 34 34 33 31 29 29 29 31 31 30 31 31 28 30 31 30 28 26 31 27 27 29 29 30 24 24 24 22
20 21 21 21 22 22 28 30 29 27 24 31 33 35 34 32 33 33 34 33 29 29 28 28 29 28 28 28 28 26 28 29 29 28 28 27 25 26 29 29 28 26 23 23 22
22 22 22 21 21 27 28 29 28 24 23 29 32 31 31 32 31 32 32 31 32 29 29 28 28 27 27 28 27 26 25 26 27 27 24 27 26 27 22 19 19 18 21 22 21
23 23 23 22 24 28 28 27 23 23 30 28 29 30 30 30 31 30 29 26 25 24 24 26 26 26 27 26 27 26 23 20 21 22 23 23 23 16 19 20 20 19 19 24 23
23 23 24 25 26 26 28 24 24 28 27 29 29 29 30 29 29 28 27 25 25 24 23 22 23 25 26 25 24 25 23 20 19 19 19 22 23 17 18 18 18 18 17 20 23
24 24 24 28 28 26 24 23 24 26 27 27 28 27 27 28 27 26 26 25 24 23 21 21 22 25 26 25 24 23 22 24 21 22 20 21 24 22 18 18 18 17 16 16 17
23 23 25 29 30 29 24 25 26 27 27 27 25 26 25 25 25 24 26 25 25 24 22 22 19 24 24 25 24 23 24 21 21 18 20 22 20 17 16 15 16 16 14 15 15
23 23 30 30 30 25 23 26 28 28 27 26 25 24 24 23 24 24 25 24 24 24 22 19 18 20 22 21 21 22 20 20 20 19 19 17 18 16 15 15 15 15 15 14 15
24 23 30 30 24 24 23 27 22 27 26 26 26 24 23 23 23 24 24 24 24 23 21 20 18 17 19 22 24 22 18 18 17 17 18 16 16 16 16 16 15 15 15 15 15
21 24 30 30 23 23 27 27 27 26 25 25 25 25 25 23 22 23 24 25 24 22 20 21 17 16 18 20 21 20 19 18 17 16 17 15 15 16 16 16 16 15 15 15 14
21 24 24 23 24 25 25 27 25 26 26 25 25 25 24 23 22 22 23 24 24 22 21 19 18 17 16 18 19 18 18 18 17 15 14 15 14 14 15 14 13 14 13 13 11
22 24 25 22 23 24 24 25 26 25 26 25 24 24 23 22 21 21 21 21 22 20 21 18 17 18 19 20 21 18 17 17 16 15 15 16 13 14 15 14 13 13 13 13 12
20 21 22 23 25 25 21 25 25 25 25 24 24 23 22 21 20 20 20 20 20 20 19 18 17 18 17 20 18 16 16 17 16 16 15 15 15 14 15 14 13 13 13 11 11
22 23 21 22 24 24 23 25 25 24 24 25 24 22 21 21 21 21 20 19 19 19 18 18 17 16 16 19 18 16 15 16 16 16 15 14 15 15 14 13 11 11 12 11 11